N557DE KLAX-KRDD

Flight info

Callsign N557DE
Flight time 1h 16m
Altitude 30000
Route LADYJ4 CSTRO NTELL RDD
Aircraft E50P/L-VGDW/C

Departure

Time 2026-04-20 23:15
Airport Los Angeles International Airport (KLAX)

Arrival

Time 2026-04-21 00:32
Airport Redding Municipal Airport (KRDD)
Time Latitude Longitude Altitude Speed Heading
2026-04-20 22:54 33.93281 -118.39895 131 ft 0 kts 266°
2026-04-20 23:10 33.93284 -118.39903 131 ft 3 kts 326°
2026-04-20 23:10 33.93328 -118.39906 131 ft 10 kts 358°
2026-04-20 23:10 33.93373 -118.39873 131 ft 8 kts 82°
2026-04-20 23:10 33.93377 -118.39836 131 ft 5 kts 67°
2026-04-20 23:11 33.93429 -118.39828 131 ft 11 kts 358°
2026-04-20 23:11 33.93460 -118.39759 131 ft 13 kts 86°
2026-04-20 23:11 33.93474 -118.39624 131 ft 19 kts 82°
2026-04-20 23:11 33.93493 -118.39438 131 ft 26 kts 84°
2026-04-20 23:12 33.93514 -118.39200 131 ft 31 kts 82°
2026-04-20 23:12 33.93548 -118.38916 131 ft 37 kts 84°
2026-04-20 23:12 33.93577 -118.38619 131 ft 30 kts 85°
2026-04-20 23:12 33.93595 -118.38437 131 ft 17 kts 81°
2026-04-20 23:13 33.93622 -118.38306 131 ft 13 kts 44°
2026-04-20 23:13 33.93643 -118.38292 131 ft 0 kts 358°
2026-04-20 23:14 33.93716 -118.38328 131 ft 16 kts 302°
2026-04-20 23:14 33.93727 -118.38393 131 ft 0 kts 261°
2026-04-20 23:14 33.93725 -118.38410 131 ft 14 kts 262°
2026-04-20 23:15 33.93686 -118.38765 131 ft 72 kts 262°
2026-04-20 23:15 33.93603 -118.39599 131 ft 129 kts 262°
2026-04-20 23:15 33.93557 -118.40688 863 ft 118 kts 275°
2026-04-20 23:15 33.93633 -118.41760 1216 ft 148 kts 267°
2026-04-20 23:16 33.93556 -118.42935 1582 ft 133 kts 263°
2026-04-20 23:16 33.93467 -118.43981 1891 ft 119 kts 263°
2026-04-20 23:16 33.93378 -118.45000 2278 ft 127 kts 263°
2026-04-20 23:16 33.93279 -118.46105 2696 ft 138 kts 263°
2026-04-20 23:17 33.93171 -118.47305 3112 ft 150 kts 263°
2026-04-20 23:17 33.93020 -118.48599 3525 ft 163 kts 259°
2026-04-20 23:17 33.92857 -118.50002 3933 ft 176 kts 262°
2026-04-20 23:17 33.92716 -118.51517 4335 ft 188 kts 263°
2026-04-20 23:18 33.92578 -118.53126 4731 ft 199 kts 263°
2026-04-20 23:18 33.92438 -118.54813 5140 ft 206 kts 263°
2026-04-20 23:18 33.92296 -118.56532 5777 ft 209 kts 264°
2026-04-20 23:18 33.92144 -118.58369 6387 ft 233 kts 264°
2026-04-20 23:19 33.92020 -118.60441 7044 ft 258 kts 272°
2026-04-20 23:19 33.92620 -118.62567 7706 ft 285 kts 301°
2026-04-20 23:19 33.94000 -118.64412 8368 ft 310 kts 316°
2026-04-20 23:19 33.95708 -118.65826 9154 ft 293 kts 328°
2026-04-20 23:20 33.97556 -118.66744 10020 ft 283 kts 339°
2026-04-20 23:20 33.99440 -118.67246 10884 ft 272 kts 347°
2026-04-20 23:20 34.01303 -118.67462 11756 ft 272 kts 352°
2026-04-20 23:20 34.03215 -118.67505 12644 ft 278 kts 356°
2026-04-20 23:21 34.05162 -118.67409 13528 ft 284 kts 360°
2026-04-20 23:21 34.07140 -118.67155 14413 ft 288 kts
2026-04-20 23:21 34.09133 -118.66800 15259 ft 293 kts
2026-04-20 23:21 34.11161 -118.66380 16017 ft 299 kts
2026-04-20 23:22 34.13218 -118.65920 16771 ft 304 kts
2026-04-20 23:22 34.15311 -118.65432 17523 ft 308 kts
2026-04-20 23:22 34.17424 -118.64928 18275 ft 312 kts
2026-04-20 23:22 34.19584 -118.64409 19035 ft 314 kts
2026-04-20 23:23 34.21736 -118.64033 19787 ft 312 kts
2026-04-20 23:23 34.23892 -118.63946 20541 ft 309 kts 354°
2026-04-20 23:23 34.26040 -118.64064 21252 ft 309 kts 351°
2026-04-20 23:23 34.28173 -118.64322 21874 ft 310 kts 348°
2026-04-20 23:24 34.30323 -118.64680 22404 ft 314 kts 347°
2026-04-20 23:24 34.32497 -118.65108 22911 ft 319 kts 346°
2026-04-20 23:24 34.34689 -118.65579 23414 ft 323 kts 345°
2026-04-20 23:24 34.36903 -118.66078 23916 ft 326 kts 345°
2026-04-20 23:25 34.39133 -118.66588 24416 ft 328 kts 345°
2026-04-20 23:25 34.41385 -118.67081 24917 ft 330 kts 346°
2026-04-20 23:25 34.43650 -118.67557 25417 ft 332 kts 346°
2026-04-20 23:25 34.45925 -118.68022 25916 ft 332 kts 346°
2026-04-20 23:26 34.48231 -118.68485 26421 ft 332 kts 346°
2026-04-20 23:26 34.50509 -118.68936 26920 ft 332 kts 346°
2026-04-20 23:26 34.52782 -118.69383 27418 ft 331 kts 346°
2026-04-20 23:26 34.55051 -118.69828 27885 ft 331 kts 346°
2026-04-20 23:27 34.57324 -118.70273 28279 ft 332 kts 346°
2026-04-20 23:27 34.59606 -118.70720 28657 ft 334 kts 347°
2026-04-20 23:27 34.61900 -118.71170 29032 ft 335 kts 347°
2026-04-20 23:27 34.64204 -118.71621 29408 ft 336 kts 347°
2026-04-20 23:28 34.66505 -118.72072 29781 ft 336 kts 347°
2026-04-20 23:28 34.68818 -118.72614 29947 ft 341 kts 341°
2026-04-20 23:28 34.73339 -118.74667 30058 ft 356 kts 332°
2026-04-20 23:29 34.77903 -118.77419 30055 ft 372 kts 329°
2026-04-20 23:29 34.82534 -118.80464 30052 ft 385 kts 328°
2026-04-20 23:30 34.87270 -118.83669 30051 ft 395 kts 328°
2026-04-20 23:30 34.92115 -118.86986 30050 ft 403 kts 328°
2026-04-20 23:31 34.97023 -118.90360 30050 ft 408 kts 327°
2026-04-20 23:31 35.01981 -118.93777 30050 ft 412 kts 327°
2026-04-20 23:32 35.06989 -118.97234 30050 ft 415 kts 327°
2026-04-20 23:32 35.12054 -119.00738 30049 ft 417 kts 327°
2026-04-20 23:33 35.17116 -119.04244 30049 ft 419 kts 327°
2026-04-20 23:33 35.22183 -119.07759 30049 ft 420 kts 327°
2026-04-20 23:34 35.27264 -119.11289 30049 ft 421 kts 327°
2026-04-20 23:34 35.32344 -119.14825 30049 ft 421 kts 327°
2026-04-20 23:35 35.39982 -119.20154 30049 ft 422 kts 327°
2026-04-20 23:36 35.45254 -119.23423 30053 ft 424 kts 333°
2026-04-20 23:36 35.50728 -119.26144 30052 ft 426 kts 336°
2026-04-20 23:37 35.56268 -119.28669 30049 ft 426 kts 337°
2026-04-20 23:37 35.61841 -119.31139 30049 ft 426 kts 337°
2026-04-20 23:38 35.67417 -119.33597 30049 ft 426 kts 337°
2026-04-20 23:38 35.73000 -119.36061 30049 ft 427 kts 337°
2026-04-20 23:39 35.78574 -119.38530 30049 ft 427 kts 337°
2026-04-20 23:39 35.84190 -119.41026 30049 ft 427 kts 337°
2026-04-20 23:40 35.89765 -119.43510 30049 ft 427 kts 337°
2026-04-20 23:40 35.95334 -119.45998 30049 ft 427 kts 337°
2026-04-20 23:41 36.00905 -119.48492 30049 ft 427 kts 337°
2026-04-20 23:41 36.06484 -119.50995 30049 ft 427 kts 337°
2026-04-20 23:42 36.12089 -119.53515 30048 ft 427 kts 337°
2026-04-20 23:42 36.17659 -119.56022 30049 ft 427 kts 337°
2026-04-20 23:43 36.23226 -119.58533 30049 ft 427 kts 337°
2026-04-20 23:43 36.28800 -119.61051 30049 ft 427 kts 337°
2026-04-20 23:44 36.34373 -119.63572 30049 ft 427 kts 337°
2026-04-20 23:44 36.39941 -119.66095 30049 ft 427 kts 337°
2026-04-20 23:45 36.45509 -119.68621 30049 ft 427 kts 337°
2026-04-20 23:45 36.51081 -119.71153 30049 ft 427 kts 336°
2026-04-20 23:46 36.55746 -119.73277 30049 ft 427 kts 336°
2026-04-20 23:46 36.61316 -119.75815 30049 ft 427 kts 336°
2026-04-20 23:47 36.66883 -119.78356 30049 ft 427 kts 336°
2026-04-20 23:47 36.72454 -119.80904 30049 ft 427 kts 336°
2026-04-20 23:48 36.78021 -119.83454 30049 ft 427 kts 336°
2026-04-20 23:48 36.83622 -119.86024 30049 ft 427 kts 336°
2026-04-20 23:49 36.89138 -119.88724 30051 ft 426 kts 333°
2026-04-20 23:49 36.94501 -119.91827 30051 ft 425 kts 331°
2026-04-20 23:50 36.99790 -119.95085 30049 ft 425 kts 330°
2026-04-20 23:50 37.05058 -119.98398 30049 ft 424 kts 330°
2026-04-20 23:51 37.10322 -120.01734 30049 ft 424 kts 330°
2026-04-20 23:51 37.15614 -120.05098 30049 ft 424 kts 330°
2026-04-20 23:52 37.20874 -120.08444 30049 ft 425 kts 330°
2026-04-20 23:52 37.26134 -120.11794 30049 ft 425 kts 330°
2026-04-20 23:53 37.31394 -120.15147 30049 ft 425 kts 330°
2026-04-20 23:53 37.36654 -120.18505 30049 ft 425 kts 330°
2026-04-20 23:54 37.41908 -120.21863 30049 ft 425 kts 330°
2026-04-20 23:54 37.47167 -120.25230 30049 ft 425 kts 330°
2026-04-20 23:55 37.52463 -120.28624 30049 ft 425 kts 330°
2026-04-20 23:55 37.57717 -120.31997 30049 ft 425 kts 330°
2026-04-20 23:56 37.62972 -120.35375 30049 ft 425 kts 330°
2026-04-20 23:56 37.68224 -120.38757 30049 ft 425 kts 330°
2026-04-20 23:57 37.73482 -120.42149 30049 ft 425 kts 330°
2026-04-20 23:57 37.78738 -120.45544 30049 ft 425 kts 330°
2026-04-20 23:58 37.84022 -120.48962 30049 ft 425 kts 330°
2026-04-20 23:58 37.89279 -120.52369 30049 ft 425 kts 330°
2026-04-20 23:59 37.94531 -120.55778 30049 ft 425 kts 330°
2026-04-20 23:59 37.99747 -120.59168 30049 ft 425 kts 330°
2026-04-21 00:00 38.05000 -120.62589 30049 ft 425 kts 330°
2026-04-21 00:00 38.10247 -120.66011 30049 ft 425 kts 330°
2026-04-21 00:01 38.15529 -120.69462 30049 ft 425 kts 330°
2026-04-21 00:01 38.20781 -120.72898 30048 ft 425 kts 330°
2026-04-21 00:02 38.26020 -120.76333 30049 ft 425 kts 330°
2026-04-21 00:02 38.31271 -120.79780 30049 ft 425 kts 330°
2026-04-21 00:03 38.36514 -120.83227 30049 ft 425 kts 329°
2026-04-21 00:03 38.41761 -120.86684 30049 ft 425 kts 329°
2026-04-21 00:04 38.46996 -120.90138 29974 ft 418 kts 329°
2026-04-21 00:04 38.49514 -120.91794 29754 ft 399 kts 329°
2026-04-21 00:04 38.51974 -120.93413 29502 ft 391 kts 329°
2026-04-21 00:04 38.54409 -120.95023 29253 ft 397 kts 329°
2026-04-21 00:05 38.56870 -120.96656 29006 ft 402 kts 329°
2026-04-21 00:05 38.59366 -120.98315 28758 ft 406 kts 329°
2026-04-21 00:05 38.61878 -120.99986 28511 ft 410 kts 329°
2026-04-21 00:05 38.64417 -121.01675 28262 ft 413 kts 329°
2026-04-21 00:06 38.66935 -121.03349 28013 ft 409 kts 329°
2026-04-21 00:06 38.69464 -121.05031 27764 ft 411 kts 329°
2026-04-21 00:06 38.72004 -121.06722 27515 ft 410 kts 329°
2026-04-21 00:06 38.74516 -121.08394 27265 ft 407 kts 329°
2026-04-21 00:07 38.77015 -121.10057 27015 ft 403 kts 329°
2026-04-21 00:07 38.79497 -121.11710 26765 ft 401 kts 329°
2026-04-21 00:07 38.81963 -121.13354 26514 ft 399 kts 329°
2026-04-21 00:07 38.84446 -121.15012 26261 ft 397 kts 329°
2026-04-21 00:08 38.86891 -121.16645 26011 ft 396 kts 329°
2026-04-21 00:08 38.89323 -121.18272 25761 ft 394 kts 329°
2026-04-21 00:08 38.91739 -121.19889 25511 ft 391 kts 329°
2026-04-21 00:08 38.94147 -121.21502 25261 ft 390 kts 329°
2026-04-21 00:09 38.96538 -121.23105 25013 ft 389 kts 329°
2026-04-21 00:09 38.98929 -121.24710 24761 ft 386 kts 329°
2026-04-21 00:09 39.01297 -121.26299 24511 ft 383 kts 329°
2026-04-21 00:09 39.03651 -121.27881 24262 ft 382 kts 329°
2026-04-21 00:10 39.05998 -121.29461 24012 ft 381 kts 329°
2026-04-21 00:10 39.08339 -121.31037 23762 ft 379 kts 329°
2026-04-21 00:10 39.10665 -121.32604 23512 ft 378 kts 329°
2026-04-21 00:10 39.12984 -121.34168 23262 ft 376 kts 329°
2026-04-21 00:11 39.15327 -121.35749 23009 ft 375 kts 329°
2026-04-21 00:11 39.17630 -121.37305 22760 ft 374 kts 329°
2026-04-21 00:11 39.19934 -121.38862 22510 ft 374 kts 329°
2026-04-21 00:11 39.22234 -121.40418 22261 ft 374 kts 329°
2026-04-21 00:12 39.24532 -121.41974 22012 ft 374 kts 329°
2026-04-21 00:12 39.26835 -121.43535 21763 ft 374 kts 329°
2026-04-21 00:12 39.29138 -121.45097 21514 ft 374 kts 329°
2026-04-21 00:12 39.31442 -121.46661 21264 ft 374 kts 329°
2026-04-21 00:13 39.33740 -121.48221 21015 ft 374 kts 329°
2026-04-21 00:13 39.36047 -121.49788 20766 ft 375 kts 329°
2026-04-21 00:13 39.38349 -121.51353 20517 ft 375 kts 329°
2026-04-21 00:13 39.40657 -121.52923 20267 ft 375 kts 329°
2026-04-21 00:14 39.42994 -121.54514 20014 ft 375 kts 329°
2026-04-21 00:14 39.45306 -121.56089 19766 ft 377 kts 329°
2026-04-21 00:14 39.47626 -121.57672 19517 ft 375 kts 329°
2026-04-21 00:14 39.49883 -121.59207 19264 ft 361 kts 329°
2026-04-21 00:15 39.52070 -121.60693 19010 ft 350 kts 329°
2026-04-21 00:15 39.54191 -121.62136 18757 ft 341 kts 329°
2026-04-21 00:15 39.56263 -121.63549 18504 ft 334 kts 328°
2026-04-21 00:15 39.58295 -121.64938 18190 ft 330 kts 328°
2026-04-21 00:16 39.60317 -121.66323 17819 ft 328 kts 328°
2026-04-21 00:16 39.62321 -121.67699 17445 ft 327 kts 328°
2026-04-21 00:16 39.64325 -121.69076 17071 ft 326 kts 328°
2026-04-21 00:16 39.66323 -121.70449 16696 ft 325 kts 328°
2026-04-21 00:17 39.68314 -121.71819 16322 ft 324 kts 328°
2026-04-21 00:17 39.70303 -121.73193 15947 ft 323 kts 328°
2026-04-21 00:17 39.72270 -121.74664 15571 ft 322 kts 326°
2026-04-21 00:17 39.74178 -121.76180 15198 ft 321 kts 324°
2026-04-21 00:18 39.76065 -121.77717 14824 ft 321 kts 324°
2026-04-21 00:18 39.77950 -121.79268 14449 ft 321 kts 324°
2026-04-21 00:18 39.79829 -121.80817 14076 ft 321 kts 324°
2026-04-21 00:18 39.81712 -121.82365 13701 ft 320 kts 324°
2026-04-21 00:19 39.83593 -121.83909 13327 ft 320 kts 324°
2026-04-21 00:19 39.85475 -121.85451 12953 ft 320 kts 324°
2026-04-21 00:19 39.87359 -121.86990 12579 ft 320 kts 324°
2026-04-21 00:19 39.89240 -121.88524 12205 ft 320 kts 324°
2026-04-21 00:20 39.91125 -121.90060 11830 ft 320 kts 324°
2026-04-21 00:20 39.93013 -121.91597 11456 ft 320 kts 325°
2026-04-21 00:20 39.94922 -121.93151 11077 ft 320 kts 325°
2026-04-21 00:20 39.96783 -121.94665 10706 ft 320 kts 325°
2026-04-21 00:21 39.98692 -121.96219 10330 ft 320 kts 324°
2026-04-21 00:21 40.00575 -121.97752 9955 ft 319 kts 325°
2026-04-21 00:21 40.02440 -121.99271 9579 ft 315 kts 325°
2026-04-21 00:21 40.04285 -122.00772 9203 ft 312 kts 324°
2026-04-21 00:22 40.06115 -122.02263 8828 ft 309 kts 324°
2026-04-21 00:22 40.07930 -122.03743 8453 ft 307 kts 324°
2026-04-21 00:22 40.09738 -122.05219 8078 ft 306 kts 324°
2026-04-21 00:22 40.11533 -122.06684 7705 ft 305 kts 324°
2026-04-21 00:23 40.13325 -122.08149 7330 ft 304 kts 324°
2026-04-21 00:23 40.15102 -122.09615 6956 ft 303 kts 323°
2026-04-21 00:23 40.16792 -122.11238 6585 ft 302 kts 322°
2026-04-21 00:23 40.18532 -122.12774 6210 ft 302 kts 324°
2026-04-21 00:24 40.20323 -122.14279 5831 ft 303 kts 324°
2026-04-21 00:24 40.22100 -122.15749 5457 ft 304 kts 325°
2026-04-21 00:24 40.23887 -122.17227 5082 ft 305 kts 325°
2026-04-21 00:24 40.25694 -122.18690 4707 ft 306 kts 327°
2026-04-21 00:25 40.27514 -122.20133 4334 ft 307 kts 327°
2026-04-21 00:25 40.29341 -122.21582 3961 ft 308 kts 327°
2026-04-21 00:25 40.31171 -122.23046 3587 ft 309 kts 327°
2026-04-21 00:25 40.33008 -122.24531 3233 ft 310 kts 327°
2026-04-21 00:26 40.34800 -122.25995 3165 ft 301 kts 327°
2026-04-21 00:26 40.36549 -122.27428 3087 ft 294 kts 327°
2026-04-21 00:26 40.38275 -122.28815 2945 ft 291 kts 328°
2026-04-21 00:26 40.40129 -122.29893 2539 ft 296 kts 346°
2026-04-21 00:27 40.42222 -122.29892 2072 ft 301 kts 10°
2026-04-21 00:27 40.44186 -122.29294 1655 ft 283 kts 10°
2026-04-21 00:27 40.46088 -122.29249 1271 ft 260 kts 351°
2026-04-21 00:27 40.47782 -122.29600 952 ft 242 kts 354°
2026-04-21 00:28 40.49427 -122.29543 653 ft 227 kts
2026-04-21 00:28 40.50967 -122.29227 1585 ft 221 kts 21°
2026-04-21 00:28 40.51453 -122.27484 2278 ft 263 kts 134°
2026-04-21 00:28 40.49965 -122.27053 3279 ft 199 kts 179°
2026-04-21 00:29 40.48589 -122.27027 3015 ft 207 kts 181°
2026-04-21 00:29 40.47178 -122.27276 2904 ft 201 kts 211°
2026-04-21 00:29 40.46895 -122.28805 2597 ft 202 kts 322°
2026-04-21 00:29 40.48250 -122.29247 2027 ft 209 kts 353°
2026-04-21 00:30 40.49664 -122.28934 1555 ft 211 kts 43°
2026-04-21 00:30 40.49429 -122.27500 1181 ft 195 kts 156°
2026-04-21 00:30 40.48210 -122.27322 1367 ft 155 kts 200°
2026-04-21 00:30 40.47841 -122.28335 1115 ft 140 kts 302°
2026-04-21 00:31 40.48568 -122.28946 1107 ft 103 kts 317°
2026-04-21 00:31 40.49211 -122.29338 898 ft 106 kts 347°
2026-04-21 00:31 40.49967 -122.29474 633 ft 116 kts 357°
2026-04-21 00:31 40.50738 -122.29476 510 ft 101 kts 359°
2026-04-21 00:32 40.51342 -122.29484 507 ft 67 kts 359°
2026-04-21 00:32 40.51650 -122.29481 507 ft 29 kts 358°
2026-04-21 00:32 40.51800 -122.29471 507 ft 15 kts 341°
2026-04-21 00:32 40.51806 -122.29495 507 ft 1 kts 186°
2026-04-21 00:33 40.51804 -122.29495 507 ft 0 kts 179°
2026-04-21 00:34 40.51803 -122.29495 507 ft 3 kts 179°
2026-04-21 00:34 40.51540 -122.29493 507 ft 72 kts 182°
2026-04-21 00:34 40.50819 -122.29501 538 ft 130 kts 181°
2026-04-21 00:34 40.49878 -122.29539 1043 ft 140 kts 182°
2026-04-21 00:35 40.48895 -122.29514 1604 ft 142 kts 179°
2026-04-21 00:35 40.47897 -122.29471 2118 ft 146 kts 179°
2026-04-21 00:35 40.46759 -122.29424 2512 ft 187 kts 179°
2026-04-21 00:35 40.45314 -122.29311 3086 ft 232 kts 170°
2026-04-21 00:36 40.45282 -122.29304 3096 ft 233 kts 169°